Location: Hohenfelde
(53.8441°N, 9.6220°E)
Time: 12:33:06
(UTC+00:00)

Cosmos 1459 Rocket - Pass Details

Date: 14 July 2020
Orbit: 938 x 999 km, 83.0° (Epoch: 12 August)

Event Time Altitude Azimuth Distance (km) Brightness Sun altitude
Exits shadow 00:52:49 15° 184° (S) 2,308 5.4 -12.3°
Maximum altitude 00:57:57 83° 99° (E) 969 4.0 -12.0°
Drops below altitude 10° 01:04:10 10° 12° (NNE) 2,717 7.8 -11.7°
Sets 01:06:42 0° 12° (NNE) 3,677 8.9 -11.5°
